{"data":{"norad_id":64293,"epoch":"2026-05-25T00:15:58.643424Z","epoch_age_seconds":80859,"freshness":"FRESH","line1":"1 64293U 25123C   26145.01109541  .00003149  00000+0  27155-3 0  9995","line2":"2 64293  70.0017   1.9102 0002359 270.5321  89.5568 14.98335887 54278","mean_motion":14.98335887,"eccentricity":0.0002359,"inclination_deg":70.0017,"raan_deg":1.9102,"arg_perigee_deg":270.5321,"mean_anomaly_deg":89.5568,"bstar":0.00027155,"rev_number":5427,"period_min":96.106621518837,"perigee_km":570.39813973373,"apogee_km":573.67723215056,"semimajor_km":6950.1746859421,"source":"CELESTRAK","updated_at":"2026-05-25T13:38:20.364824Z"}}